Location: Canazei
(46.4667°N, 11.7667°E)
Time: 18:15:16
(UTC+00:00)

CZ-2D R/B - Pass Details

Date: 21 April 2021
Orbit: 792 x 844 km, 98.7° (Epoch: 11 May)

Event Time Altitude Azimuth Distance (km) Brightness Sun altitude
Rises 01:07:49 0° 12° (NNE) 3,415 6.5 -26.1°
Reaches altitude 10° 01:10:12 10° 11° (N) 2,476 5.5 -25.9°
Maximum altitude 01:15:41 75° 288° (WNW) 878 2.1 -25.4°
Enters shadow 01:16:15 68° 240° (WSW) 909 2.1 -25.3°
